Weather in Anninskiye Mineralnye Vody

Russia / Khabarovsk Krai     52°46′01″N   140°10′14″E
temp.,
°C
wind,
m/s
gust,
m/s
humid.,
%
clouds,
%
prec.,
mm/h
press.,
hPa
HPBL,
m
26 july, mon
mon2601:00+21sse2386100 0.6 100345
04:00+19sse229395 0.8 100344
07:00+22sse1389100 0.0 100393
10:00+26sw2462100 0.0 1004484
13:00+29w2548100 0.0 10031204
16:00+25s2267100 0.0 100340
19:00+23e0179100 0.1 100413
22:00+20e1199100 4.3 100541
27 july, tue
tue2701:00+19ssw01100100 4.9 100551
04:00+19w12100100 7.2 1005176
07:00+19wnw1199100 1.1 1005112
10:00+19n2399100 8.3 1005193
13:00+19ne0198100 5.2 1006130
16:00+20nnw119095 5.3 1007345
19:00+21ssw008798 0.0 100630
22:00+18ese1196100 0.0 100611
28 july, wed
wed2801:00+17ese1196100 0.0 100613
04:00+16ese1195100 0.0 100513
07:00+18se118590 0.0 100526
10:00+21se117492 0.0 1004147
13:00+28ssw134961 0.0 10021350
16:00+28wsw225493 0.0 10001340
19:00+23n118333 0.0 100038
22:00+20sw0096100 0.4 100111
29 july, thu
thu2901:00+19e0097100 0.8 99912
04:00+19nw1198100 0.9 100014
07:00+20wnw119799 0.6 999119
10:00+21wnw1195100 0.6 999274
13:00+25wnw1178100 0.1 998648
16:00+26wnw1174100 0.1 997706
19:00+23ne1191100 0.5 99716
22:00+21e1198100 0.6 99841
30 july, fri
fri3001:00+19ene1299100 1.1 99775
04:00+19ne1299100 2.3 997142
07:00+18wnw0099100 0.6 997115
10:00+17nw1299100 1.7 997202
13:00+17wnw1299100 1.8 998209
16:00+17wnw2299100 7.0 998271
19:00+16wnw1299100 0.1 998194
22:00+15w1199100 0.1 999122